Regional Weather Roundup
Issued by NWS Midland/Odessa, TX

Home | Current Version | Previous Version | Text Only | Print | Product List | Glossary On
Versions: 1 2 3 4 5 6 7 8 9 10 11 12 13 14 15 16 17 18 19 20 21 22 23 24 25 26 27 28 29 30 31 32 33 34 35 36 37 38 39 40 41 42 43 44 45 46 47 48 49 50
000
ASUS44 KMAF 280010
RWRMAF
MIDLAND AREA WEATHER ROUNDUP
NATIONAL WEATHER SERVICE MIDLAND TX
700 PM CDT TUE JUN 27 2017

...IN SOUTHWEST TEXAS AND SOUTHEAST NEW MEXICO...

CITY           SKY/WX    TMP DP  RH WIND       PRES   REMARKS
ALPINE         MOSUNNY   89  52  28 E10G16    30.08S
ANDREWS        FAIR      87  56  34 S10G16    29.96F
ARTESIA        MOSUNNY   93  52  24 SE23      29.90F
BIG SPRING     MOSUNNY   90  57  32 SE12      29.95F
CARLSBAD       SUNNY     94  50  22 SE14      29.89F
DRYDEN           N/A     92  62  36 E18G24    29.90F
FORT STOCKTON  SUNNY     93  53  25 SE14      29.93F
GUAD PASS      SUNNY     87  45  23 W9        30.09F
HOBBS          SUNNY     88  46  23 SE14G20   29.97F
MARFA          CLOUDY    84  53  34 S12       30.06S
MIDLAND AIRPK  MOSUNNY   91  56  30 S13       29.94F
MIDLAND INTL   MOSUNNY   90  58  33 S13       29.93F
ODESSA         MOSUNNY   90  57  32 SE15G22   29.95F
PECOS          SUNNY     94  50  22 E7        29.89F
PRESIDIO       FAIR      89  58  35 NE10      29.92F
SEMINOLE       SUNNY     87  53  31 S12       29.97F
SNYDER         SUNNY     89  61  39 SE15      29.95S
WINK           SUNNY     94  50  22 SE14      29.90F
$$
...OTHER STATIONS IN TEXAS...

CITY           SKY/WX    TMP DP  RH WIND       PRES   REMARKS
ABILENE        SUNNY     88  64  44 SE15      29.93F
AMARILLO       NOT AVBL
AUSTIN         PTSUNNY   79  70  74 SW6       29.94F
BROWNSVILLE    CLOUDY    83  76  79 E12       29.82F
CORPUS CHRISTI PTSUNNY   87  72  60 E15       29.88F
DALLAS FTW     PTSUNNY   77  72  84 SE5       29.90F
DEL RIO        MOSUNNY   90  66  45 SE13      29.86F
EL PASO        MOSUNNY   95  51  22 SE7       29.93F
HOUSTON INT    PTSUNNY   83  72  69 SE10      29.93F
LUBBOCK        PTSUNNY   89  54  30 S16       29.94F
SAN ANGELO     MOSUNNY   90  61  37 E14       29.92F
SAN ANTONIO    CLOUDY    77  70  79 E13       29.96R
WACO           MOSUNNY   87  72  60 S18       29.92S
WICHITA FALLS  NOT AVBL
$$
...OTHER LOCATIONS IN NEW MEXICO...

CITY           SKY/WX    TMP DP  RH WIND       PRES   REMARKS
ALAMOGORDO     SUNNY     93  45  18 SW5       29.96S
ALBUQUERQUE    MOSUNNY   91  39  16 S20       29.95F
CANNON AFB     SUNNY     90  48  23 S20       29.95F
CLOVIS         NOT AVBL
HOLLOMAN AFB   SUNNY     95  46  18 W10       29.96S
ROSWELL        SUNNY     95  45  17 S17G25    29.90F
RUIDOSO        MOSUNNY   77  48  36 SW12      30.18S
SANTA FE       MOSUNNY   91  34  13 W12G18    30.01F
TRUTH OR CONSE PTSUNNY   84  50  30 N8        30.01S
TUCUMCARI      MOSUNNY   91  50  24 S13G22    29.86S
$$



USA.gov is the U.S. government's official web portal to all federal, state and local government web resources and services.